SCP
2 2 2 2 2 2 2 2 2 2 2 2 2 2 2 1 1 1 1 1 1 1 1 1 1 1 1 1 1 1 1 1 1 1 1 1 1 1 1 1 0 0 0
2 2 2 2 2 2 2 2 2 2 2 2 2 2 2 1 1 1 1 1 1 1 2 2 2 2 2 1 1 1 1 1 1 1 1 1 1 1 1 1 0 0 0
2 2 2 2 2 2 2 2 2 2 2 2 2 2 2 1 1 1 1 1 1 1 2 2 2 2 2 1 1 1 1 1 1 1 1 1 1 1 1 1 0 0 0
1 1 1 1 1 1 1 2 2 2 1 1 1 1 1 1 1 1 1 1 1 1 1 2 2 2 2 1 1 1 2 1 1 1 1 1 1 1 1 1 1 0 0
1 1 1 1 1 1 1 1 1 1 1 1 1 1 1 1 1 1 1 1 1 1 1 1 2 2 2 2 1 2 2 2 2 1 1 1 1 1 1 1 1 1 0
1 1 1 1 1 1 1 1 1 1 1 1 1 1 1 1 1 1 1 1 1 1 1 1 1 2 2 2 2 2 2 2 2 1 1 1 1 1 1 1 1 1 0
1 1 1 0 0 0 0 0 0 0 0 1 1 1 1 1 1 1 1 1 1 1 1 1 1 1 1 2 2 2 2 2 2 2 1 1 1 1 1 1 1 1 1
0 0 0 0 0 0 0 0 0 0 0 0 1 0 0 0 0 0 1 1 1 1 1 1 1 1 1 1 2 2 2 2 2 2 1 1 1 1 1 1 1 1 1
0 0 0 0 0 0 0 0 0 0 0 0 0 0 0 0 0 0 0 0 0 0 1 1 1 1 1 1 1 1 1 1 2 2 1 1 1 1 1 1 1 1 1
0 0 0 0 0 0 0 0 0 0 0 0 0 0 0 0 0 0 0 0 0 0 0 1 1 1 1 1 1 1 1 1 1 2 2 1 1 1 1 1 1 1 1
0 0 0 0 0 0 0 0 0 0 0 0 0 0 0 0 0 0 0 0 0 0 0 1 1 1 1 1 1 1 1 1 1 1 1 1 1 1 1 1 1 1 1
0 0 0 0 0 0 0 0 0 0 0 0 0 0 0 0 0 0 0 0 0 0 0 0 1 1 1 1 1 1 1 1 1 1 1 1 1 1 1 1 1 1 1
0 0 0 0 0 0 0 0 0 0 0 0 0 0 0 0 0 0 0 0 0 0 0 0 0 1 1 1 1 1 1 1 0 1 1 1 1 1 1 1 1 1 1
0 0 0 0 0 0 0 0 0 0 0 0 0 0 0 0 0 0 0 0 0 0 0 0 0 0 1 1 1 0 0 0 0 0 1 1 1 1 1 1 1 1 1
0 0 0 0 0 0 0 0 0 0 0 0 0 0 0 0 0 0 0 0 0 0 0 0 0 0 0 1 0 0 0 0 0 0 1 0 0 0 1 1 0 0 0
0 0 0 0 0 0 0 0 0 0 0 0 0 0 0 0 0 0 0 0 0 0 0 0 0 0 0 0 0 0 0 0 0 0 0 0 0 0 0 0 0 0 0
0 0 0 0 0 0 0 0 0 0 0 0 0 0 0 0 0 0 0 0 0 0 0 0 0 0 0 0 0 0 0 0 0 0 0 0 0 0 0 0 0 0 0
0 0 0 0 0 0 0 0 0 0 0 0 0 0 0 0 0 0 0 0 0 0 0 0 0 0 0 0 0 0 0 0 0 0 0 0 0 0 0 0 0 0 0
0 0 0 0 0 0 0 0 0 0 0 0 0 0 0 0 0 0 0 0 0 0 0 0 0 0 0 0 0 0 0 0 0 0 0 0 0 0 0 0 0 0 0
0 0 0 0 0 0 0 0 0 0 0 0 0 0 0 0 0 0 0 0 0 0 0 0 0 0 0 0 0 0 0 0 0 0 0 0 0 0 0 0 0 0 0
0 0 0 0 0 0 0 0 0 0 0 0 0 0 0 0 0 0 0 0 0 0 0 0 0 0 0 0 0 0 0 0 0 0 0 0 0 0 0 0 0 0 0
0 0 0 0 0 0 0 0 0 0 0 0 0 0 0 0 0 0 0 0 0 0 0 0 0 0 0 0 0 0 0 0 0 0 0 0 0 0 0 0 0 0 0
0 0 0 0 0 0 0 0 0 0 0 0 0 0 0 0 0 0 0 0 0 0 0 0 0 0 0 0 0 0 0 0 0 0 0 0 0 0 0 0 0 0 0
0 0 0 0 0 0 0 0 0 0 0 0 0 0 0 0 0 0 0 0 0 0 0 0 0 0 0 1 0 0 0 0 0 0 0 0 0 0 0 0 0 0 0
0 0 0 0 0 0 0 0 0 0 0 0 0 0 0 0 0 0 0 0 0 0 0 0 0 0 0 0 0 0 0 0 0 0 0 0 0 0 0 0 0 0 0
0 0 0 0 0 0 0 0 0 0 0 0 0 0 0 0 0 0 0 0 0 0 0 0 0 0 0 0 0 0 0 0 0 0 0 0 0 0 0 0 0 0 0
Wind_Speed
3 3 2 2 2 2 3 3 3 5 5 6 7 8 9 9 8 7 6 14 16 16 17 19 21 21 21 21 21 20 20 20 18 17 16 15 15 15 15 14 13 12 11
2 2 2 2 2 2 2 3 4 4 5 5 6 7 8 8 8 9 8 10 15 16 17 18 20 22 22 22 22 22 21 20 18 18 17 16 15 15 15 15 14 13 13
3 3 2 2 2 2 3 3 3 3 3 4 6 7 7 8 9 9 9 7 8 13 16 17 18 21 23 24 23 23 21 20 19 19 18 17 16 16 16 15 15 14 13
3 3 2 2 2 2 2 2 2 2 3 4 4 5 6 6 9 10 9 8 7 7 11 17 18 19 22 24 25 24 22 21 20 20 20 19 18 17 17 16 16 15 14
2 2 2 2 2 1 1 2 1 2 3 4 5 5 6 6 8 9 10 10 9 8 7 11 17 19 21 24 24 24 23 22 21 21 22 21 21 19 18 18 17 16 16
1 2 2 2 1 1 1 2 2 2 3 3 5 6 6 7 6 8 9 8 8 10 10 10 9 12 18 20 21 22 23 22 22 23 23 23 22 20 19 18 18 17 17
0 1 2 2 2 2 2 2 2 2 3 2 2 4 5 7 8 7 7 7 9 10 9 10 8 8 7 15 18 20 23 23 23 23 23 23 22 21 20 20 19 18 18
1 2 2 2 2 2 3 3 2 2 2 1 1 2 4 4 3 6 6 7 8 7 9 11 9 9 8 6 10 19 22 23 24 24 23 22 22 21 21 21 20 19 18
3 3 3 3 3 3 3 4 3 4 3 2 3 2 2 3 4 3 4 5 5 6 7 7 10 10 10 8 8 15 21 21 23 24 23 22 21 20 20 21 21 20 19
4 4 3 3 3 3 4 5 4 4 4 3 2 3 4 3 3 4 3 2 4 5 6 7 8 9 9 8 9 13 18 20 21 21 21 21 21 20 21 21 21 21 20
4 4 3 3 3 3 5 5 4 4 4 4 3 2 3 3 4 4 5 4 3 3 4 6 5 6 8 8 8 11 15 17 18 19 18 19 21 21 21 21 22 22 21
4 5 4 4 4 4 4 5 5 5 4 5 4 3 3 3 2 3 4 4 4 3 4 4 5 5 6 7 10 13 15 15 16 17 17 17 18 19 20 20 21 22 21
3 5 4 4 4 4 4 4 4 5 5 6 5 4 4 4 3 3 3 4 4 3 3 2 3 3 5 5 7 13 13 14 14 15 15 15 15 16 17 18 19 19 19
5 6 5 5 6 5 5 4 4 5 5 6 7 6 4 4 4 4 3 3 3 3 2 2 1 1 2 3 5 9 8 12 12 12 12 12 12 13 13 14 14 14 15
5 6 6 6 6 6 5 5 4 5 5 5 6 6 5 4 4 4 4 3 3 3 3 2 1 1 0 1 3 5 5 9 10 10 10 10 10 10 11 11 12 12 12
5 6 6 6 6 6 6 5 5 6 6 6 5 6 6 5 5 4 4 4 4 3 3 2 1 2 1 0 2 3 4 8 9 10 10 9 9 9 9 9 10 10 11
6 6 7 7 7 7 6 5 7 7 7 7 6 7 8 7 5 5 5 4 4 4 5 3 1 1 1 1 2 3 4 4 5 9 10 10 9 9 8 8 8 8 8
6 7 7 7 7 7 7 7 8 8 8 8 8 8 8 6 8 6 5 6 5 5 4 4 2 1 0 1 2 4 4 4 5 8 10 10 9 8 7 6 6 6 6
7 7 7 7 8 8 8 8 8 9 9 9 9 9 9 8 8 7 7 7 6 5 4 4 3 1 1 1 3 3 5 4 5 7 9 9 9 8 7 6 6 5 5
7 8 8 8 9 9 9 9 9 9 9 9 9 9 10 9 10 9 8 8 7 6 5 4 4 2 2 2 3 4 4 4 4 5 6 7 9 9 8 7 6 6 5
8 8 8 9 9 8 8 9 9 9 9 9 9 9 10 12 13 10 8 8 8 7 6 5 4 3 3 4 4 4 4 5 4 3 4 4 4 4 4 6 6 6 6
8 8 8 9 9 8 10 13 11 9 9 9 10 9 10 12 14 15 15 13 12 10 9 7 5 6 6 5 4 5 5 5 4 4 4 3 3 4 3 3 4 6 6
8 9 9 9 10 11 14 15 16 10 10 10 10 9 9 9 11 9 11 13 14 15 13 9 8 7 7 7 7 8 7 6 4 7 5 4 3 3 3 3 6 6 7
8 8 9 10 10 11 13 13 14 11 9 10 10 10 10 10 9 9 9 9 9 10 12 9 8 8 7 7 8 7 7 6 5 5 4 4 3 3 3 3 6 7 8
8 8 8 9 10 11 12 12 11 7 8 10 10 10 10 10 11 11 10 9 9 8 9 11 10 8 8 9 8 7 7 7 5 4 3 4 5 4 3 2 4 8 9
8 8 9 8 9 10 11 11 9 5 7 8 8 8 12 12 12 13 10 9 10 8 7 8 8 7 7 8 11 9 8 8 5 4 5 5 5 5 4 2 2 3 5
Wind_Direction
222 221 226 228 240 244 246 251 250 251 243 236 234 234 234 233 231 228 229 233 231 230 232 229 221 217 213 208 206 206 206 204 200 196 196 196 193 189 189 189 188 186 185
217 225 236 232 237 243 248 250 250 250 250 243 242 241 241 240 235 232 229 234 235 231 232 234 227 220 217 213 210 207 208 208 204 200 198 199 197 194 193 194 193 190 190
200 203 215 230 235 240 244 246 253 254 258 253 253 251 247 243 241 237 234 228 231 234 235 235 233 226 220 217 214 210 208 209 207 203 201 200 199 197 196 196 196 194 193
200 201 212 231 239 241 244 248 248 256 260 261 262 262 256 249 247 242 237 232 226 230 236 236 234 230 224 221 219 215 211 209 209 207 204 202 201 200 199 198 198 197 195
218 213 226 235 234 236 248 267 256 244 263 269 270 264 255 250 249 246 239 235 230 227 225 234 236 233 228 225 223 221 216 212 211 210 208 206 205 203 202 202 201 199 198
220 205 236 251 249 243 247 242 253 247 253 265 276 275 263 253 248 244 241 237 232 231 227 228 232 235 231 227 224 223 222 217 215 214 211 209 208 205 204 204 203 202 202
272 240 256 258 247 240 246 243 242 253 256 240 271 286 275 253 245 243 237 234 235 233 227 224 223 223 227 225 221 221 223 220 220 217 213 211 210 207 205 205 205 205 205
306 269 256 259 253 249 260 245 219 235 252 219 228 292 306 305 270 244 232 231 237 233 231 228 222 216 218 214 215 219 221 219 221 221 216 212 209 207 205 206 207 207 207
309 291 272 260 253 235 246 242 218 215 237 249 217 224 264 287 312 292 248 239 240 236 236 232 223 216 215 214 213 217 218 217 219 222 218 213 210 207 205 206 208 208 208
307 296 280 269 257 243 244 247 228 217 215 238 245 231 234 249 277 305 306 269 254 247 241 238 230 218 215 212 213 210 213 214 215 219 218 212 209 208 207 207 209 210 209
302 295 283 274 265 253 248 247 239 223 215 220 222 230 241 246 243 259 287 300 293 261 247 238 231 224 217 212 211 212 210 211 211 215 214 211 208 207 208 209 212 213 212
296 292 285 275 269 259 251 247 241 233 225 226 227 222 222 229 234 241 265 286 291 281 264 242 231 227 222 215 216 212 208 207 206 208 207 208 205 205 207 211 215 216 216
281 281 282 275 270 261 257 249 242 240 230 226 228 228 228 232 233 237 255 274 280 286 278 258 239 232 224 211 215 209 206 201 200 200 201 201 200 200 203 208 213 215 216
265 275 278 272 268 266 266 254 247 246 236 233 237 231 230 233 228 228 234 263 288 287 278 281 285 247 230 212 209 198 201 190 186 186 188 191 191 192 195 200 205 210 214
267 270 271 271 270 266 262 256 250 254 246 239 240 235 231 235 229 228 228 229 249 279 289 299 306 338 317 203 188 183 180 176 171 169 172 177 179 183 188 194 200 205 209
271 278 277 274 272 269 263 255 254 255 252 249 241 240 238 234 231 227 224 225 224 242 266 286 309 333 348 70 134 145 147 149 156 157 159 161 161 166 175 183 191 199 205
277 274 274 274 272 270 264 255 253 254 252 254 250 241 243 235 229 226 220 222 223 224 248 262 270 312 6 138 111 109 115 123 134 139 142 144 148 154 162 171 179 188 197
277 273 273 273 272 269 261 254 257 257 249 250 250 244 246 240 231 226 219 221 222 218 229 251 252 251 253 165 138 126 115 118 122 130 130 131 135 140 147 156 162 171 180
280 279 273 270 270 269 265 259 255 256 252 249 247 242 243 237 234 227 221 221 219 219 216 231 244 227 181 164 141 125 120 114 113 120 116 115 118 122 126 133 139 146 157
278 277 274 270 269 269 266 263 258 255 253 252 249 244 241 234 232 227 223 220 215 213 213 219 229 227 203 179 159 148 140 126 118 112 103 102 105 103 106 113 123 132 142
279 275 276 276 272 268 263 258 253 254 251 253 252 247 244 239 235 227 222 215 208 206 205 210 218 212 205 184 178 158 154 136 118 126 121 108 104 97 92 96 106 122 134
282 280 277 277 275 271 267 265 263 259 254 252 253 251 249 250 245 234 228 217 206 202 202 201 208 214 212 197 182 165 155 154 154 152 137 118 107 99 79 77 92 109 120
285 285 282 278 275 272 268 268 268 264 255 251 248 248 250 245 233 230 229 226 219 215 203 196 203 209 205 199 187 180 176 167 155 152 138 127 119 104 79 71 89 102 109
285 285 284 282 280 278 274 269 269 265 256 250 245 240 240 244 237 225 222 222 221 221 215 208 208 210 208 197 191 184 170 141 110 137 143 131 130 112 96 75 79 94 102
288 286 284 284 283 284 281 278 272 265 256 253 246 239 234 237 234 222 219 219 220 227 224 215 209 210 202 191 177 166 164 158 154 153 142 127 130 119 108 91 80 89 96
285 288 286 283 280 282 285 284 279 260 256 255 248 241 235 231 227 214 213 212 215 219 213 205 204 206 201 192 182 181 177 169 153 155 157 136 142 144 134 119 103 103 98